Regional Weather Roundup
Issued by NWS Albany, NY

Home | Current Version | Previous Version | Text Only | Print | Product List | Glossary On
Versions: 1 2 3 4 5 6 7 8 9 10 11 12 13 14 15 16 17 18 19 20 21 22 23 24 25 26 27 28 29 30 31 32 33 34 35 36 37 38 39 40 41 42 43 44 45 46 47 48 49 50
556
ASUS41 KALY 020910
RWRALY

NEW YORK STATE HOURLY WEATHER ROUNDUP
NATIONAL WEATHER SERVICE ALBANY NY
400 AM EST FRI DEC 02 2016

NOTE: "FAIR" INDICATES FEW OR NO CLOUDS BELOW 12,000 FEET WITH NO
SIGNIFICANT WEATHER AND/OR NO OBSTRUCTIONS TO VISIBILITY.

NYZ032-033-038>043-046>054-057>066-NYZ062>081-082-084-021000-
EAST


CITY           SKY/WX    TMP DP  RH WIND       PRES   REMARKS
ALBANY         CLOUDY    39  30  70 W3        29.78R
GLENS FALLS    CLOUDY    42  31  64 SW9       29.74R
POUGHKEEPSIE   PTCLDY    37  28  70 S3        29.83R
NEWBURGH       PTCLDY    37  30  75 W9        29.84R WCI  31
MONTGOMERY     CLOUDY    37  29  72 SW8       29.83R WCI  31
WHITE PLAINS   PTCLDY    38  27  64 W10G20    29.83F WCI  31
ISLIP          CLEAR     40  28  62 W12       29.85S WCI  33
NEW YORK CITY  CLEAR     44  28  53 W16G26    29.87F
CENTRAL PARK   CLEAR     40  27  59 W8        29.89F WCI  34
$$

NYZ005>009-017-018-044>046-055-056-021000-
CENTRAL


CITY           SKY/WX    TMP DP  RH WIND       PRES   REMARKS
FULTON         CLOUDY    42  35  76 SW13      29.76R
SYRACUSE       LGT RAIN  41  34  76 SW14G24   29.77R
ROME           CLOUDY    41  34  76 W8        29.77S
ELMIRA         CLOUDY    40  31  70 SW9       29.82S WCI  34
BINGHAMTON     CLOUDY    35  29  78 W12       29.78S WCI  27
MONTICELLO     CLOUDY    36  28  75 W8        29.81R WCI  29
$$

NYZ026>034-041>043-087-021000-
NORTH


CITY           SKY/WX    TMP DP  RH WIND       PRES   REMARKS
WATERTOWN      LGT RAIN  43  37  79 W16G23    29.70S
FORT DRUM      NOT AVBL
OGDENSBURG     FAIR      42  37  81 SW9       29.65R
MASSENA        CLOUDY    42  34  73 SW12      29.65F
SARANAC LAKE   CLOUDY    36  32  85 SW8       29.62S WCI  30
PLATTSBURGH    MOCLDY    39  33  79 S3        29.67R
$$

NYZ001>004-010>016-019>021-085-021000-
WEST


CITY           SKY/WX    TMP DP  RH WIND       PRES   REMARKS
NIAGARA FALLS  MOCLDY    42  32  67 W20       29.80R
BUFFALO        CLOUDY    41  32  70 W20G26    29.80R
DUNKIRK        MOCLDY    43  35  73 W18G29    29.85R
JAMESTOWN      CLOUDY    34  30  86 SW10      29.84R WCI  26
WELLSVILLE     LGT SNOW  35  31  85 W9        29.81R FOG     WCI  28
ROCHESTER      CLOUDY    42  34  73 W17       29.78R
PENN YAN       CLOUDY    40  32  73 SW9       29.80S WCI  34
$$

             KEY
       WCI = WIND CHILL INDEX
       VSB = VISIBILITY
       HX  = HEAT INDEX
$$




USA.gov is the U.S. government's official web portal to all federal, state and local government web resources and services.